STARLINK-4719, 53774

Orbit data source: Space-Track

STARLINK-4719, 53774 is a payload satellite owned by SpaceX/Seattle (US) in LEO that was launched on Sun, 11 Sep 2022 UTC via an FALCON 9 launch vehicle from the Air Force Eastern Test Range (AFETR). Payload-class satellites include a variety of spacecraft equipped with specific instruments for various scientific and technological missions. These include communications satellites like Starlink; space stations such as the ISS; scientific satellites like the Hubble; Earth observation satellites from companies like Planet Labs, Umbra, and HawkEye 360; GPS; miniature CubeSats for education and research; and military/defense satellites.

Loading next visibility...
Identifier
53774, 2022-111B
Orbit
LEO
Country
Flag of USUS
Related business
Manufacturer
SpaceX/Seattle
Mission
Operational Commercial Communications
Bus & Motor
STARLINK, Unknown motor
Mass
305 kg wet, ~290 kg dry
Launch date (UTC)
2022-09-11 (3 years ago)
Launch vehicle
FALCON 9
Launch site
Air Force Eastern Test Range (AFETR)
Object type
Payload
Rocket body
Debris
Shape & HBR
Box + 1 Pan, 10.1 m
Radar Cross Section
13.562 m², Large (>1 m²)

Expand to show TLE details & history
Last TLE update: 14 hours ago

TLE from 14 hours ago
0 STARLINK-4719
1 53774U 22111B   25286.54533886 -.00000204  00000-0  52738-5 0  9995
2 53774  53.2184 224.5572 0001738  84.4426 275.6764 15.08835395171491
Epoch: 2025-10-13T13:05Z
TLE epoch observation values (Epoch: 2025-10-13T13:05:17.277Z)
Latitude
-0.00005°
Longitude
5.88859°
Altitude
540.536 km
Speed
7.593 km/s
True Right ascension
14h 58m 13s
True Declination
0° 00' 00"
Sunlit
Object was in daylight at epoch
Visualization orbit readout
Latitude
Unknown
Longitude
Unknown
Altitude
Unknown
Speed
Unknown
Apparent Right ascension
Unknown
Apparent Declination
Unknown
Sunlit
N/A
Visualization observer readout
Local Sidereal Time
21:24:31
Azimuth
Unknown
Elevation
Unknown
Doppler factor
Unknown
Orbital elements
Apogee altitude
541.205 km
Perigee altitude
538.8 km
Semi-major axis
6,918.139 km
Eccentricity
0.00017
Inclination
53.2184°
RAAN
224.5572°
Arg. of periapsis
84.4426°
True anomaly
275.65658°
Mean anomaly
275.6764°
Eccentric anomaly
275.66649°
Mean motion
3.77189 °/min
Orbital period
95.44 mins
BSTAR
0.0000052738
Loading maneuver chart data...
Computing Atmospheric mass density...
Loading historical data...
Loading historical data...
Loading historical data...
Loading historical data...
Loading historical data...
Loading historical data...
Loading historical data...

Documentation

Showing up to 5 results
|